User: anonymous   Login
Location: Unspecified
(0.0000°N, 0.0000°E)
Time: 06:19:32
(UTC+00:00)
Language:

OPTUS D2 - Orbit

View from above orbital plane
View from above orbital plane
View from above satellite
View from above satellite

Ground track
Ground track

The orbit data is extracted from the following two-line orbital elements,

1 32252U 07044A   15213.55512097 -.00000200  00000-0  00000+0 0  9997
2 32252 000.0542 280.9122 0003577 209.5321 171.2256 01.00270705 28629
Epoch (UTC): 01 August 2015 13:19:22
Eccentricity: 0.0003577
inclination: 0.0542°
perigee height: 35771 km
apogee height: 35801 km
right ascension of ascending node: 280.9122°
argument of perigee: 209.5321°
revolutions per day: 1.00270705
mean anomaly at epoch: 171.2256°
orbit number at epoch: 2862

The dashed part of the orbit path shows where the satellite is in the earth's shadow,  

DLR